Location: Bastogne Gables
(35.1554°N, 78.9900°W)
Time: 03:30:03
(UTC+00:00)

IRS-1C Rocket - Pass Details

Date: 29 October 2020
Orbit: 801 x 805 km, 99.0° (Epoch: 26 November)

Event Time Altitude Azimuth Distance (km) Brightness Sun altitude
Rises 23:28:48 0° 163° (SSE) 3,298 7.2 -13.8°
Reaches altitude 10° 23:31:07 10° 162° (SSE) 2,372 6.4 -14.3°
Maximum altitude 23:36:22 82° 75° (ENE) 816 4.0 -15.3°
Drops below altitude 10° 23:41:39 10° 349° (NNW) 2,389 6.6 -16.4°
Sets 23:43:59 0° 348° (NNW) 3,324 7.4 -16.9°
